Location: Le Hiès Ruisseau
(43.3000°N, 0.4500°W)
Time: 12:34:34
(UTC+00:00)

SL-08 R/B - Pass Details

Date: 28 January 2023
Orbit: 947 x 992 km, 83.0° (Epoch: 19 March)

Event Time Altitude Azimuth Distance (km) Brightness Sun altitude
Rises 19:05:34 0° 356° (N) 3,663 7.5 -21.4°
Reaches altitude 10° 19:08:08 10° 1° (N) 2,719 6.8 -21.9°
Maximum altitude 19:14:14 55° 78° (ENE) 1,167 4.5 -23.0°
Enters shadow 19:17:42 26° 145° (SE) 1,827 5.6 -23.6°
Exits shadow 19:22:09 - 159° (SSE) 3,386 7.2 -24.4°
Sets 19:22:56 0° 160° (SSE) 3,680 7.4 -24.6°
